Weather in Saint-Louis

Senegal     15°56′47″N   16°28′00″W
temp.,
°C
wind,
m/s
gust,
m/s
humid.,
%
clouds,
%
prec.,
mm/h
press.,
hPa
HPBL,
m
7 may, fri
fri700:00+21nnw71372100 0.0 1013201
03:00+21n71374100 0.0 1012232
06:00+20n71478100 0.0 1013218
09:00+22n8127199 0.0 1014252
12:00+24nnw786285 0.0 1014379
15:00+23nw896749 0.0 1012249
18:00+22nnw8117310 0.0 1012191
21:00+21nnw814806 0.0 1013193
8 may, sat
sat800:00+21nnw8148073 0.0 1014211
03:00+20nnw9158198 0.0 1012249
06:00+20nnw9158339 0.0 1012272
09:00+21n8127599 0.0 1014316
12:00+22nnw81071100 0.0 1015369
15:00+22nnw81072100 0.0 1013323
18:00+21nnw7979100 0.0 1012253
21:00+20nnw61187100 0.0 1013253
9 may, sun
sun900:00+20nnw8128899 0.0 1014258
03:00+19nnw9148923 0.0 1012312
06:00+19nnw914885 0.0 1012342
09:00+20n8127946 0.0 1014429
12:00+21nw667573 0.0 1015400
15:00+21nw777931 0.0 1013360
18:00+20nw78834 0.0 1012323
21:00+20nw68890 0.0 1013287
10 may, mon
mon1000:00+19nnw69880 0.0 1013272
03:00+19nnw611900 0.0 1011314
06:00+19nnw610901 0.0 1012287
09:00+21nnw68780 0.0 1013322
12:00+21nw567519 0.0 1014320
15:00+21nw667716 0.0 1012280
18:00+21nw56800 0.0 1011252
21:00+20nw69850 0.0 1012187
11 may, tue
tue1100:00+20nw610860 0.0 1013202
03:00+20nnw612869 0.0 1011246
06:00+20nnw59875 0.0 1012211
09:00+21nnw58785 0.0 1013235
12:00+23nw677310 0.0 1013282
15:00+22wnw667626 0.0 1012242
18:00+22wnw711795 0.0 1010208
21:00+21wnw58860 0.0 1012191